STARLINK-36772

Last updated on Sat Mar 14 2026 00:02:06 GMT+0000 (Coordinated Universal Time)

1 67721U 26026A 26072.58334491 -.00608880 00000+0 -19933-1 0 9990 2 67721 97.2847 127.0747 0000682 40.9440 147.8861 15.33834620 5945
UTC large
Height (km)
Speed (km/s)
/
Latitude / Longitude
Inclination (degrees)
Orbital Period (minutes)
Azimuth
Elevation
Range (km)
Doppler Factor

Next 0 passes for location: London (51.5072 / 0.1276)

Sorry there are no passes over London.